TKSAT-1 (TUPAC KATARI)

Last updated on Wed Sep 17 2025 00:02:48 GMT+0000 (Coordinated Universal Time)

1 39481U 13075A 25259.55044721 -.00000214 00000+0 00000+0 0 9998 2 39481 0.0371 33.8414 0002221 150.5652 282.3101 1.00271127 42859
UTC large
Height (km)
Speed (km/s)
/
Latitude / Longitude
Inclination (degrees)
Orbital Period (minutes)
Azimuth
Elevation
Range (km)
Doppler Factor

Next 0 passes for location: London (51.5072 / 0.1276)

Sorry there are no passes over London.